Flag for Kazakhstan Weather past 2 weeks in Almaty, Kazakhstan

Now
27 °F

More clouds than sun.


Feels Like: 23 °F
Forecast: 12 / 36 °F
Wind: 3 mph from Southeast

Location: Almaty Airport

Current Time: Jan 31, 2015 at 3:03:05 PM

Latest Report: Jan 31, 2015 at 2:30 PM


Visibility: 1 mi

Pressure: 30.07 "Hg

Humidity: 54%

Dew point: 12 °F

Location of AlmatyLocation

Historic Weather in Almaty — Graph

°F

Almaty temperature yesterday

Maximum temperature yesterday: 16 °F (at 2:00 PM)
Minimum temperature yesterday: -2 °F (at 1:30 AM)
Average temperature yesterday: 6 °F

Past Weeks' High & Low Weather Summary

 TemperatureHumidityPressure
High45 °F (Jan 18, 2:30 PM)93% (Jan 19, 2:00 AM)30.60 "Hg (Jan 19, 2:00 AM)
Low-6 °F (Jan 27, 6:00 AM)34% (Jan 18, 2:30 PM)29.95 "Hg (Jan 20, 2:30 PM)
Average16 °F78%30.27 "Hg
* Reported Jan 16 2:00 PM — Jan 31 2:00 PM, Almaty, Weather by CustomWeather, © 2014

Note: Actual official high and low records may vary slightly from our data, if they occured in-between our weather recording intervals... More about our weather records

Advertising

Almaty weather history for previous 24 hours

 ConditionsComfort  
Time TempWeatherWind HumidityBarometerVisibility
2:00 PM
Jan 31
23 °FMore clouds than sun.1 mph63%30.09 "Hg1 mi
1:30 PM21 °FMore clouds than sun.3 mph63%30.09 "Hg1 mi
1:00 PM21 °FMore clouds than sun.1 mph58%30.09 "Hg1 mi
12:30 PM19 °FMore clouds than sun.8 mph63%30.12 "Hg1 mi
12:00 PM18 °FMore clouds than sun.10 mph68%30.12 "Hg1 mi
11:30 AM18 °FIce fog.6 mph73%30.09 "Hg1 mi
11:00 AM18 °FIce fog.3 mph68%30.09 "Hg1 mi
10:30 AM16 °FIce fog.3 mph73%30.07 "Hg1 mi
10:00 AM16 °FIce fog.1 mph73%30.07 "Hg1 mi
9:00 AM14 °FIce fog.No wind73%30.07 "Hg1 mi
8:30 AM14 °FIce fog.No wind73%30.09 "Hg1 mi
8:00 AM14 °FIce fog.1 mph79%30.07 "Hg1 mi
7:30 AM14 °FIce fog.No wind73%30.07 "Hg1 mi
7:00 AM14 °FIce fog.3 mph73%30.07 "Hg1 mi
6:30 AM12 °FIce fog.3 mph79%30.07 "Hg1 mi
6:00 AM12 °FIce fog.3 mph79%30.07 "Hg1 mi
5:30 AM10 °FIce fog.6 mph79%30.07 "Hg1 mi
5:00 AM10 °FIce fog.3 mph79%30.07 "Hg1 mi
4:30 AM9 °FIce fog.3 mph85%30.07 "Hg1 mi
4:00 AM9 °FIce fog.3 mph78%30.07 "Hg0 mi
3:30 AM5 °FIce fog.3 mph85%30.07 "Hg0 mi
3:00 AM5 °FIce fog.3 mph85%30.07 "Hg0 mi
2:30 AM7 °FIce fog.1 mph78%30.07 "Hg0 mi
2:00 AM7 °FIce fog.3 mph85%30.07 "Hg0 mi
1:30 AM5 °FIce fog.1 mph85%30.09 "Hg0 mi
1:00 AM7 °FIce fog.1 mph78%30.09 "Hg0 mi
12:30 AM5 °FIce fog.1 mph85%30.09 "Hg0 mi
12:00 AM7 °FIce fog.1 mph78%30.09 "Hg0 mi
11:30 PM
Jan 30
7 °FIce fog.1 mph78%30.12 "Hg1 mi
11:00 PM7 °FIce fog.1 mph78%30.12 "Hg0 mi
10:30 PM7 °FIce fog.No wind78%30.15 "Hg0 mi
10:00 PM7 °FIce fog.1 mph78%30.15 "Hg1 mi
9:30 PM5 °FIce fog.No wind85%30.15 "Hg0 mi
9:00 PM5 °FIce fog.3 mph78%30.15 "Hg0 mi
8:30 PM7 °FIce fog.1 mph78%30.15 "Hg0 mi
8:00 PM7 °FIce fog.1 mph78%30.15 "Hg0 mi
7:30 PM9 °FIce fog.1 mph78%30.15 "Hg1 mi
7:00 PM9 °FIce fog.1 mph72%30.15 "Hg1 mi
6:30 PM10 °FIce fog.1 mph72%30.15 "Hg1 mi
6:00 PM10 °FPassing clouds.1 mph72%30.12 "Hg1 mi
5:30 PM12 °FPartly sunny.1 mph67%30.12 "Hg1 mi
5:00 PM12 °FPartly sunny.3 mph67%30.12 "Hg1 mi
4:30 PM14 °FPartly sunny.3 mph62%30.12 "Hg1 mi
4:00 PM16 °FPartly sunny.3 mph62%30.12 "Hg1 mi
3:30 PM16 °FPartly sunny.3 mph62%30.15 "Hg1 mi
3:00 PM16 °FPartly sunny.6 mph62%30.15 "Hg1 mi
Weather by CustomWeather, © 2014

See weather overviewHow to use our weather pages